Hourly Weather Myszków

Today, 8 July, Wednesday

Time Temperature Precipitation Wind Pressure Humidity
00:00 +12°C° 0 mm 2 mps 735 mmHg 78%
01:00 +12°C° 0 mm 2 mps 735 mmHg 77%
02:00 +12°C° 0 mm 2 mps 735 mmHg 77%
03:00 +12°C° 0 mm 2 mps 735 mmHg 77%
04:00 +11°C° 0 mm 3 mps 735 mmHg 77%
05:00 +12°C° 0 mm 3 mps 735 mmHg 75%
06:00 +13°C° 0 mm 4 mps 735 mmHg 72%
07:00 +14°C° 0 mm 4 mps 735 mmHg 69%
08:00 +15°C° 0 mm 4 mps 735 mmHg 69%
09:00 +16°C° 0 mm 3 mps 735 mmHg 69%
10:00 +17°C° 0 mm 3 mps 735 mmHg 68%
11:00 +17°C° 0.2 mm 3 mps 735 mmHg 69%
12:00 +17°C° 0.2 mm 3 mps 735 mmHg 69%
13:00 +17°C° 0.2 mm 4 mps 735 mmHg 70%
14:00 +17°C° 0.2 mm 3 mps 735 mmHg 75%
15:00 +16°C° 0.2 mm 2 mps 735 mmHg 81%
16:00 +15°C° 0.2 mm 2 mps 734 mmHg 87%
17:00 +14°C° 0.9 mm 2 mps 734 mmHg 90%
18:00 +14°C° 0.9 mm 2 mps 734 mmHg 92%
19:00 +14°C° 0.9 mm 2 mps 734 mmHg 95%
20:00 +14°C° 0.4 mm 2 mps 735 mmHg 95%
21:00 +13°C° 0.4 mm 2 mps 735 mmHg 95%
22:00 +13°C° 0.4 mm 2 mps 735 mmHg 96%
23:00 +13°C° 0 mm 2 mps 735 mmHg 96%

Tomorrow, 9 July, Thursday

Time Temperature Precipitation Wind Pressure Humidity
00:00 +12°C° 0 mm 2 mps 735 mmHg 96%
01:00 +12°C° 0 mm 2 mps 736 mmHg 96%
02:00 +10°C° 0 mm 2 mps 736 mmHg 96%
03:00 +10°C° 0 mm 2 mps 736 mmHg 95%
04:00 +10°C° 0 mm 2 mps 736 mmHg 94%
05:00 +12°C° 0 mm 2 mps 736 mmHg 91%
06:00 +13°C° 0 mm 2 mps 736 mmHg 87%
07:00 +15°C° 0 mm 2 mps 737 mmHg 83%
08:00 +16°C° 0 mm 2 mps 737 mmHg 76%
09:00 +18°C° 0 mm 2 mps 737 mmHg 69%
10:00 +19°C° 0 mm 2 mps 737 mmHg 62%
11:00 +20°C° 0 mm 2 mps 737 mmHg 57%
12:00 +21°C° 0 mm 2 mps 737 mmHg 53%
13:00 +23°C° 0 mm 2 mps 737 mmHg 49%
14:00 +23°C° 0 mm 2 mps 736 mmHg 53%
15:00 +23°C° 0 mm 2 mps 736 mmHg 57%
16:00 +21°C° 0 mm 2 mps 735 mmHg 61%
17:00 +21°C° 0 mm 3 mps 735 mmHg 66%
18:00 +20°C° 0 mm 3 mps 735 mmHg 71%
19:00 +19°C° 0 mm 3 mps 735 mmHg 76%
20:00 +19°C° 0 mm 3 mps 735 mmHg 77%
21:00 +19°C° 0 mm 3 mps 735 mmHg 78%
22:00 +18°C° 0 mm 3 mps 735 mmHg 79%
23:00 +18°C° 0 mm 3 mps 735 mmHg 82%

Day after tomorrow, 10 July, Friday

Time Temperature Precipitation Wind Pressure Humidity
00:00 +17°C° 0 mm 3 mps 734 mmHg 86%
01:00 +17°C° 0 mm 3 mps 734 mmHg 89%
02:00 +17°C° 0 mm 2 mps 734 mmHg 89%
03:00 +17°C° 0 mm 2 mps 734 mmHg 89%
04:00 +17°C° 0 mm 2 mps 734 mmHg 89%
05:00 +19°C° 0 mm 3 mps 734 mmHg 84%
06:00 +20°C° 0 mm 4 mps 734 mmHg 79%
07:00 +21°C° 0 mm 4 mps 734 mmHg 74%
08:00 +23°C° 0.1 mm 5 mps 734 mmHg 69%
09:00 +25°C° 0.1 mm 5 mps 734 mmHg 63%
10:00 +27°C° 0.1 mm 6 mps 734 mmHg 57%
11:00 +28°C° 0 mm 6 mps 734 mmHg 55%
12:00 +28°C° 0 mm 6 mps 733 mmHg 52%
13:00 +29°C° 0 mm 6 mps 733 mmHg 49%
14:00 +29°C° 0 mm 6 mps 733 mmHg 50%
15:00 +29°C° 0 mm 6 mps 733 mmHg 51%
16:00 +29°C° 0 mm 6 mps 732 mmHg 51%
17:00 +28°C° 0 mm 5 mps 732 mmHg 57%
18:00 +27°C° 0 mm 4 mps 732 mmHg 62%
19:00 +25°C° 0 mm 3 mps 732 mmHg 67%
20:00 +24°C° 0 mm 3 mps 732 mmHg 68%
21:00 +22°C° 0 mm 3 mps 732 mmHg 68%
22:00 +23°C° 0 mm 2 mps 732 mmHg 69%
23:00 +20°C° 0.5 mm 2 mps 732 mmHg 78%

11 July, Saturday

Time Temperature Precipitation Wind Pressure Humidity
00:00 +19°C° 0.5 mm 2 mps 733 mmHg 87%
01:00 +19°C° 0.5 mm 1 mps 733 mmHg 96%
02:00 +19°C° 0.5 mm 1 mps 733 mmHg 95%
03:00 +17°C° 0.5 mm 2 mps 733 mmHg 94%
04:00 +17°C° 0.5 mm 2 mps 733 mmHg 94%
05:00 +17°C° 0.1 mm 2 mps 734 mmHg 91%
06:00 +17°C° 0.1 mm 2 mps 734 mmHg 89%
07:00 +18°C° 0.1 mm 3 mps 734 mmHg 87%
08:00 +17°C° 0.8 mm 3 mps 735 mmHg 89%
09:00 +17°C° 0.8 mm 3 mps 735 mmHg 91%
10:00 +15°C° 0.8 mm 4 mps 736 mmHg 94%
11:00 +15°C° 0.7 mm 4 mps 736 mmHg 93%
12:00 +14°C° 0.7 mm 4 mps 736 mmHg 93%
13:00 +14°C° 0.7 mm 4 mps 736 mmHg 92%
14:00 +14°C° 2.6 mm 3 mps 736 mmHg 93%
15:00 +14°C° 2.6 mm 2 mps 736 mmHg 93%
16:00 +14°C° 2.6 mm 2 mps 737 mmHg 94%
17:00 +14°C° 3 mm 1 mps 737 mmHg 94%
18:00 +14°C° 3 mm 1 mps 737 mmHg 94%
19:00 +14°C° 3 mm 1 mps 738 mmHg 95%
20:00 +14°C° 1.1 mm 1 mps 738 mmHg 94%
21:00 +13°C° 1.1 mm 2 mps 738 mmHg 93%
22:00 +13°C° 1.1 mm 2 mps 739 mmHg 93%
23:00 +13°C° 0 mm 2 mps 738 mmHg 92%

12 July, Sunday

Time Temperature Precipitation Wind Pressure Humidity
00:00 +12°C° 0 mm 2 mps 738 mmHg 91%
01:00 +12°C° 0 mm 2 mps 738 mmHg 91%
02:00 +10°C° 0 mm 2 mps 738 mmHg 91%
03:00 +10°C° 0 mm 2 mps 738 mmHg 91%
04:00 +9°C° 0 mm 2 mps 738 mmHg 92%
05:00 +11°C° 0 mm 3 mps 739 mmHg 89%
06:00 +12°C° 0 mm 3 mps 739 mmHg 86%
07:00 +13°C° 0 mm 4 mps 739 mmHg 83%
08:00 +14°C° 0.1 mm 4 mps 739 mmHg 76%
09:00 +17°C° 0.1 mm 4 mps 740 mmHg 68%
10:00 +17°C° 0.1 mm 5 mps 740 mmHg 61%
11:00 +17°C° 0.1 mm 5 mps 740 mmHg 58%
12:00 +19°C° 0.1 mm 4 mps 740 mmHg 56%
13:00 +19°C° 0.1 mm 4 mps 740 mmHg 54%
14:00 +19°C° 0.1 mm 4 mps 739 mmHg 57%
15:00 +18°C° 0.1 mm 4 mps 739 mmHg 60%
16:00 +18°C° 0.1 mm 4 mps 739 mmHg 63%
17:00 +17°C° 0 mm 3 mps 739 mmHg 66%
18:00 +16°C° 0 mm 3 mps 739 mmHg 70%
19:00 +14°C° 0 mm 3 mps 739 mmHg 73%
20:00 +14°C° 0 mm 2 mps 740 mmHg 75%
21:00 +13°C° 0 mm 2 mps 740 mmHg 77%
22:00 +12°C° 0 mm 1 mps 740 mmHg 79%
23:00 +12°C° 0 mm 1 mps 740 mmHg 79%

13 July, Monday

Time Temperature Precipitation Wind Pressure Humidity
00:00 +11°C° 0 mm 1 mps 740 mmHg 80%
01:00 +11°C° 0 mm 1 mps 740 mmHg 80%
02:00 +10°C° 0 mm 2 mps 740 mmHg 81%
03:00 +9°C° 0 mm 2 mps 740 mmHg 82%
04:00 +9°C° 0 mm 2 mps 739 mmHg 83%
05:00 +12°C° 0 mm 2 mps 740 mmHg 78%
06:00 +13°C° 0 mm 2 mps 740 mmHg 74%
07:00 +14°C° 0 mm 3 mps 740 mmHg 69%
08:00 +16°C° 0 mm 3 mps 740 mmHg 65%
09:00 +17°C° 0 mm 3 mps 740 mmHg 61%
10:00 +18°C° 0 mm 4 mps 740 mmHg 57%
11:00 +19°C° 0 mm 3 mps 739 mmHg 56%
12:00 +19°C° 0 mm 3 mps 739 mmHg 55%
13:00 +20°C° 0 mm 3 mps 739 mmHg 54%
14:00 +20°C° 0 mm 3 mps 738 mmHg 54%
15:00 +20°C° 0 mm 3 mps 738 mmHg 54%
16:00 +20°C° 0 mm 2 mps 738 mmHg 55%
17:00 +19°C° 0 mm 2 mps 738 mmHg 61%
18:00 +18°C° 0 mm 2 mps 738 mmHg 67%
19:00 +18°C° 0 mm 1 mps 737 mmHg 72%
20:00 +16°C° 0 mm 1 mps 738 mmHg 76%
21:00 +15°C° 0 mm 1 mps 738 mmHg 79%
22:00 +13°C° 0 mm 0 mps 738 mmHg 83%
23:00 +12°C° 0 mm 0 mps 738 mmHg 84%
Show more